KAL59 RJTT-KSEA

Flight info

Callsign KAL59
Flight time N/A
Altitude 35000
Route RJTT/34R N0500F350 ROVE3A INUBO Y808 NOLAX Y812 ADNAP OTR5 KALNA DCT 44N160E 47N170E/N0503F370 50N180W 52N170W 51N160W 50N150W 49N140W/N0488F390 DCT PRETY DCT DOLFF DCT TOU MARNR8 KSEA/34L
Aircraft B78X/H-SDE2E3FGHIRWXY/LB1

Departure

Time 2026-04-30 14:30
Airport Tokyo Haneda International Airport (RJTT)

Arrival

Time N/A
Airport Seattle–Tacoma International Airport (KSEA)
Time Latitude Longitude Altitude Speed Heading
2026-04-30 14:00 35.55056 139.79034 34 ft 0 kts 243°
2026-04-30 14:20 35.55060 139.79044 34 ft 3 kts 243°
2026-04-30 14:20 35.55077 139.79083 49 ft 3 kts 213°
2026-04-30 14:21 35.55081 139.79087 50 ft 3 kts 204°
2026-04-30 14:21 35.55103 139.79094 33 ft 3 kts 160°
2026-04-30 14:22 35.55107 139.79092 32 ft 0 kts 154°
2026-04-30 14:24 35.55092 139.79101 60 ft 5 kts 152°
2026-04-30 14:24 35.55059 139.79133 34 ft 5 kts 137°
2026-04-30 14:25 35.55049 139.79237 33 ft 10 kts 64°
2026-04-30 14:25 35.54974 139.79419 34 ft 18 kts 149°
2026-04-30 14:26 35.54680 139.79629 33 ft 29 kts 150°
2026-04-30 14:26 35.54505 139.79748 35 ft 28 kts 149°
2026-04-30 14:26 35.54179 139.79983 36 ft 26 kts 149°
2026-04-30 14:27 35.54030 139.80089 35 ft 24 kts 151°
2026-04-30 14:27 35.53898 139.80185 36 ft 20 kts 141°
2026-04-30 14:27 35.53887 139.80297 37 ft 11 kts 68°
2026-04-30 14:28 35.53939 139.80409 37 ft 0 kts 59°
2026-04-30 14:28 35.53944 139.80420 37 ft 5 kts 59°
2026-04-30 14:29 35.54073 139.80438 37 ft 13 kts 330°
2026-04-30 14:29 35.54596 139.80063 33 ft 102 kts 329°
2026-04-30 14:30 35.57750 139.78063 931 ft 175 kts 352°
2026-04-30 14:31 35.59348 139.79506 1760 ft 155 kts 63°
2026-04-30 14:31 35.60416 139.82282 2134 ft 215 kts 65°
2026-04-30 14:31 35.61017 139.84107 2450 ft 240 kts 89°
2026-04-30 14:32 35.60903 139.88265 4226 ft 251 kts 90°
2026-04-30 14:32 35.60967 139.90430 5169 ft 255 kts 93°
2026-04-30 14:32 35.61145 139.92627 6022 ft 267 kts 74°
2026-04-30 14:33 35.62113 139.94658 6823 ft 283 kts 47°
2026-04-30 14:33 35.65808 139.96357 8401 ft 300 kts
2026-04-30 14:33 35.67919 139.96507 9227 ft 306 kts
2026-04-30 14:34 35.70059 139.96617 10073 ft 311 kts
2026-04-30 14:34 35.72274 139.96748 10672 ft 324 kts
2026-04-30 14:34 35.74522 139.96402 11220 ft 332 kts 336°
2026-04-30 14:34 35.76779 139.95557 11694 ft 351 kts 354°
2026-04-30 14:35 35.80831 139.96800 12515 ft 383 kts 32°
2026-04-30 14:35 35.83340 140.00002 13321 ft 399 kts 60°
2026-04-30 14:35 35.84356 140.03207 14077 ft 405 kts 79°
2026-04-30 14:36 35.84509 140.06681 14753 ft 409 kts 98°
2026-04-30 14:36 35.83795 140.10071 15427 ft 412 kts 116°
2026-04-30 14:36 35.82361 140.13078 16085 ft 415 kts 128°
2026-04-30 14:36 35.80635 140.15967 16744 ft 421 kts 129°
2026-04-30 14:37 35.78947 140.18935 17396 ft 428 kts 126°
2026-04-30 14:37 35.77401 140.22112 18046 ft 436 kts 121°
2026-04-30 14:37 35.76076 140.25506 18651 ft 443 kts 115°
2026-04-30 14:37 35.75024 140.29108 19206 ft 451 kts 108°
2026-04-30 14:38 35.74390 140.32929 19757 ft 460 kts 97°
2026-04-30 14:38 35.74253 140.36892 20289 ft 467 kts 91°
2026-04-30 14:38 35.74325 140.40930 20806 ft 474 kts 89°
2026-04-30 14:38 35.74352 140.45012 21298 ft 480 kts 94°
2026-04-30 14:39 35.74124 140.49120 21810 ft 484 kts 97°
2026-04-30 14:39 35.73810 140.53272 22310 ft 490 kts 96°
2026-04-30 14:39 35.73623 140.57477 22797 ft 496 kts 94°
2026-04-30 14:40 35.73324 140.66049 23723 ft 507 kts 96°
2026-04-30 14:40 35.73081 140.70397 24078 ft 513 kts 96°
2026-04-30 14:40 35.72863 140.74809 24451 ft 519 kts 95°
2026-04-30 14:40 35.72660 140.79269 24832 ft 523 kts 98°
2026-04-30 14:41 35.71984 140.83582 25225 ft 521 kts 110°
2026-04-30 14:41 35.70779 140.87787 25586 ft 520 kts 117°
2026-04-30 14:41 35.69328 140.91874 25981 ft 522 kts 120°
2026-04-30 14:41 35.67832 140.95972 26375 ft 527 kts 118°
2026-04-30 14:42 35.66538 141.00216 26759 ft 534 kts 113°
2026-04-30 14:42 35.65405 141.04569 27133 ft 539 kts 112°
2026-04-30 14:42 35.64607 141.07543 27389 ft 540 kts 115°
2026-04-30 14:42 35.62840 141.13256 27876 ft 543 kts 117°
2026-04-30 14:43 35.61477 141.17617 28203 ft 547 kts 115°
2026-04-30 14:43 35.60206 141.22033 28576 ft 551 kts 114°
2026-04-30 14:43 35.58932 141.26485 28935 ft 553 kts 115°
2026-04-30 14:43 35.57587 141.30939 29279 ft 556 kts 116°
2026-04-30 14:44 35.56217 141.35407 29628 ft 559 kts 116°
2026-04-30 14:44 35.54872 141.39921 29911 ft 564 kts 115°
2026-04-30 14:44 35.53552 141.44408 30205 ft 567 kts 116°
2026-04-30 14:44 35.52188 141.48964 30475 ft 569 kts 116°
2026-04-30 14:45 35.50804 141.53522 30756 ft 570 kts 116°
2026-04-30 14:45 35.49427 141.58088 31043 ft 573 kts 116°
2026-04-30 14:45 35.48034 141.62739 31334 ft 574 kts 116°
2026-04-30 14:45 35.46671 141.67270 31749 ft 572 kts 116°
2026-04-30 14:46 35.45284 141.71842 32148 ft 571 kts 116°
2026-04-30 14:46 35.44086 141.76515 32538 ft 577 kts 106°
2026-04-30 14:46 35.43560 141.81433 32984 ft 583 kts 96°
2026-04-30 14:46 35.43523 141.84728 33221 ft 585 kts 91°
2026-04-30 14:47 35.43737 141.89714 33569 ft 587 kts 88°
2026-04-30 14:47 35.44071 141.94714 33903 ft 587 kts 88°
2026-04-30 14:47 35.44279 141.99700 34222 ft 585 kts 93°
2026-04-30 14:47 35.44196 142.04696 34509 ft 584 kts 96°
2026-04-30 14:48 35.43902 142.11292 34874 ft 585 kts 95°
2026-04-30 14:48 35.43841 142.14657 34981 ft 588 kts 92°
2026-04-30 14:48 35.43926 142.24646 34982 ft 581 kts 94°
2026-04-30 14:49 35.43708 142.34500 34975 ft 579 kts 94°
2026-04-30 14:49 35.43667 142.44350 34981 ft 580 kts 93°
2026-04-30 14:50 35.43446 142.59172 34986 ft 580 kts 93°
2026-04-30 14:51 35.43257 142.74002 34989 ft 580 kts 94°
2026-04-30 14:52 35.43048 142.88783 34995 ft 574 kts 93°
2026-04-30 14:52 35.42807 143.03507 35003 ft 576 kts 93°
2026-04-30 14:53 35.42554 143.18228 35007 ft 575 kts 93°
2026-04-30 14:54 35.43140 143.37823 35041 ft 578 kts 72°
2026-04-30 14:55 35.46592 143.46569 35051 ft 568 kts 47°
2026-04-30 14:55 35.49202 143.50175 35060 ft 560 kts 35°
2026-04-30 14:55 35.55534 143.55470 35034 ft 546 kts 21°
2026-04-30 14:56 35.62152 143.60038 35031 ft 549 kts 24°
2026-04-30 14:56 35.68351 143.65674 35047 ft 568 kts 39°
2026-04-30 14:57 35.71107 143.69249 35033 ft 580 kts 44°
2026-04-30 14:58 35.81934 143.83961 35035 ft 583 kts 37°
2026-04-30 14:58 35.90363 143.94930 35208 ft 590 kts 40°
2026-04-30 15:00 36.04472 144.13129 35213 ft 587 kts 40°
2026-04-30 15:01 36.15721 144.27786 35249 ft 588 kts 40°
2026-04-30 15:01 36.24242 144.38926 35223 ft 593 kts 40°
2026-04-30 15:02 36.29913 144.46370 35226 ft 594 kts 40°
2026-04-30 15:03 36.44047 144.64995 35229 ft 593 kts 40°
2026-04-30 15:04 36.58167 144.83711 35236 ft 597 kts 39°
2026-04-30 15:06 36.72301 145.02560 35250 ft 595 kts 39°
2026-04-30 15:07 36.83553 145.17640 35259 ft 596 kts 40°
2026-04-30 15:08 36.94833 145.32830 35254 ft 594 kts 39°
2026-04-30 15:09 37.08885 145.51848 35263 ft 595 kts 39°
2026-04-30 15:10 37.20036 145.67178 35273 ft 600 kts 47°
2026-04-30 15:11 37.33523 145.94095 35280 ft 607 kts 53°
2026-04-30 15:13 37.44594 146.16584 35277 ft 607 kts 52°
2026-04-30 15:14 37.60129 146.48218 35274 ft 606 kts 51°
2026-04-30 15:17 37.79968 146.89067 35284 ft 607 kts 52°
2026-04-30 15:19 37.97485 147.25558 35292 ft 606 kts 52°
2026-04-30 17:39 48.18159 173.47176 34468 ft 534 kts 63°
2026-04-30 17:42 48.34025 173.97594 34462 ft 533 kts 64°
2026-04-30 17:43 48.41863 174.22880 34453 ft 534 kts 64°
2026-04-30 17:44 48.51229 174.53441 34448 ft 536 kts 65°
2026-04-30 17:47 48.65073 174.99312 34449 ft 534 kts 65°
2026-04-30 17:48 48.75755 175.35303 34442 ft 536 kts 66°
2026-04-30 17:50 48.87802 175.76543 34445 ft 536 kts 66°
2026-04-30 17:52 48.96770 176.07705 34442 ft 536 kts 66°
2026-04-30 17:54 49.10027 176.54523 34442 ft 538 kts 67°
2026-04-30 17:56 49.21656 176.96372 34432 ft 538 kts 68°
2026-04-30 17:58 49.30315 177.28024 34429 ft 537 kts 68°
2026-04-30 18:00 49.41278 177.68721 34428 ft 539 kts 69°
2026-04-30 18:01 49.48365 177.95413 34430 ft 541 kts 69°
2026-04-30 18:02 49.56790 178.27553 34422 ft 541 kts 69°
2026-04-30 18:04 49.65137 178.59847 34426 ft 540 kts 70°
2026-04-30 18:06 49.76123 179.03068 34427 ft 537 kts 70°
2026-04-30 18:08 49.85608 179.41066 34418 ft 541 kts 70°
2026-04-30 18:10 49.96302 179.84700 34414 ft 541 kts 71°
2026-04-30 18:11 50.05749 -179.77173 34417 ft 541 kts 70°
2026-04-30 18:13 50.12533 -179.49883 34422 ft 539 kts 70°
2026-04-30 18:14 50.19222 -179.22678 34432 ft 539 kts 71°
2026-04-30 18:15 50.27164 -178.89930 34415 ft 538 kts 71°
2026-04-30 18:16 50.32417 -178.67993 34416 ft 538 kts 71°
2026-04-30 18:17 50.35029 -178.56998 34405 ft 540 kts 71°
2026-04-30 18:18 50.38922 -178.40516 34398 ft 539 kts 71°
2026-04-30 18:18 50.41509 -178.29487 34405 ft 538 kts 71°
2026-04-30 18:19 50.44077 -178.18490 34403 ft 537 kts 71°
2026-04-30 18:19 50.46636 -178.07471 34397 ft 538 kts 72°
2026-04-30 18:20 50.49187 -177.96428 34395 ft 537 kts 72°
2026-04-30 18:20 50.51709 -177.85456 34392 ft 537 kts 72°
2026-04-30 18:21 50.54232 -177.74423 34388 ft 536 kts 72°
2026-04-30 18:21 50.56743 -177.63385 34390 ft 536 kts 72°
2026-04-30 18:22 50.59254 -177.52287 34392 ft 538 kts 72°
2026-04-30 18:22 50.62995 -177.35649 34391 ft 535 kts 72°
2026-04-30 18:23 50.65462 -177.24603 34391 ft 535 kts 72°
2026-04-30 18:23 50.67924 -177.13522 34372 ft 536 kts 72°
2026-04-30 18:24 50.71588 -176.96917 34373 ft 536 kts 73°
2026-04-30 18:25 50.74027 -176.85793 34368 ft 536 kts 73°
2026-04-30 18:25 50.77659 -176.69110 34360 ft 535 kts 73°
2026-04-30 18:26 50.81276 -176.52365 34351 ft 536 kts 73°
2026-04-30 18:27 50.84860 -176.35629 34350 ft 534 kts 73°
2026-04-30 18:28 50.88416 -176.18890 34339 ft 535 kts 73°
2026-04-30 18:28 50.91941 -176.02160 34324 ft 535 kts 74°
2026-04-30 18:29 50.96616 -175.79757 34314 ft 535 kts 74°
2026-04-30 18:30 51.01254 -175.57278 34305 ft 536 kts 74°
2026-04-30 18:31 51.04690 -175.40458 34295 ft 532 kts 74°
2026-04-30 18:32 51.08099 -175.23631 34276 ft 533 kts 75°
2026-04-30 18:33 51.11480 -175.06789 34290 ft 534 kts 75°
2026-04-30 18:33 51.14828 -174.89973 34291 ft 533 kts 75°
2026-04-30 18:34 51.18157 -174.73109 34273 ft 532 kts 75°
2026-04-30 18:35 51.20366 -174.61834 34262 ft 532 kts 75°
2026-04-30 18:35 51.22560 -174.50571 34267 ft 530 kts 75°
2026-04-30 18:36 51.25819 -174.33714 34255 ft 530 kts 75°
2026-04-30 18:37 51.29055 -174.16832 34234 ft 531 kts 75°
2026-04-30 18:37 51.31204 -174.05532 34226 ft 531 kts 76°
2026-04-30 18:38 51.33340 -173.94236 34226 ft 531 kts 76°
2026-04-30 18:38 51.35464 -173.82936 34219 ft 531 kts 76°
2026-04-30 18:39 51.37580 -173.71609 34222 ft 532 kts 76°
2026-04-30 18:39 51.39674 -173.60335 34218 ft 531 kts 76°
2026-04-30 18:40 51.41767 -173.48993 34217 ft 531 kts 76°
2026-04-30 18:40 51.43850 -173.37636 34217 ft 531 kts 76°
2026-04-30 18:41 51.45923 -173.26263 34193 ft 531 kts 76°
2026-04-30 18:41 51.47991 -173.14841 34213 ft 533 kts 76°
2026-04-30 18:42 51.50048 -173.03421 34212 ft 532 kts 76°
2026-04-30 18:42 51.53113 -172.86260 34219 ft 533 kts 77°
2026-04-30 18:45 51.64110 -172.23291 34211 ft 531 kts 77°
2026-04-30 18:46 51.66078 -172.11778 34224 ft 533 kts 77°
2026-04-30 18:46 51.68035 -172.00262 34224 ft 532 kts 77°
2026-04-30 18:47 51.69978 -171.88744 34226 ft 532 kts 77°
2026-04-30 18:47 51.71909 -171.77223 34226 ft 533 kts 77°
2026-04-30 18:48 51.73826 -171.65705 34241 ft 538 kts 77°
2026-04-30 18:48 51.75742 -171.54130 34245 ft 530 kts 78°
2026-04-30 18:49 51.77636 -171.42588 34232 ft 532 kts 78°
2026-04-30 18:49 51.79203 -171.32995 34239 ft 531 kts 78°
2026-04-30 18:50 51.81080 -171.21424 34207 ft 531 kts 78°
2026-04-30 18:50 51.83251 -171.07940 34232 ft 533 kts 78°
2026-04-30 18:51 51.84808 -170.98203 34232 ft 533 kts 78°
2026-04-30 18:51 51.86643 -170.86650 34235 ft 533 kts 78°
2026-04-30 18:52 51.88479 -170.75014 34238 ft 533 kts 78°
2026-04-30 18:52 51.90305 -170.63350 34233 ft 538 kts 78°
2026-04-30 18:53 51.92121 -170.51690 34246 ft 528 kts 78°
2026-04-30 18:53 51.93912 -170.40069 34249 ft 531 kts 78°
2026-04-30 18:54 51.95695 -170.28454 34258 ft 531 kts 78°
2026-04-30 18:54 51.97465 -170.16815 34235 ft 531 kts 79°
2026-04-30 18:55 51.99224 -170.05173 34247 ft 535 kts 79°
2026-04-30 18:55 52.00218 -169.93362 34273 ft 528 kts 96°
2026-04-30 18:55 51.99856 -169.87461 34270 ft 523 kts 102°
2026-04-30 18:56 51.98121 -169.70038 34253 ft 524 kts 98°
2026-04-30 18:57 51.97282 -169.52328 34263 ft 523 kts 101°
2026-04-30 18:57 51.96497 -169.40595 34266 ft 524 kts 98°
2026-04-30 18:58 51.95433 -169.22977 34263 ft 523 kts 99°
2026-04-30 18:59 51.94333 -169.05315 34260 ft 527 kts 99°
2026-04-30 19:00 51.92788 -168.81664 34266 ft 528 kts 100°
2026-04-30 19:01 51.91194 -168.57960 34272 ft 529 kts 100°
2026-04-30 19:02 51.89967 -168.40178 34272 ft 530 kts 100°
2026-04-30 19:03 51.88291 -168.16487 34274 ft 534 kts 100°
2026-04-30 19:04 51.86563 -167.92743 34284 ft 533 kts 101°
2026-04-30 19:05 51.84782 -167.68949 34285 ft 536 kts 101°
2026-04-30 19:06 51.82943 -167.45043 34290 ft 535 kts 101°
2026-04-30 19:06 51.81539 -167.27210 34290 ft 535 kts 101°
2026-04-30 19:07 51.80091 -167.09195 34293 ft 538 kts 101°
2026-04-30 19:08 51.78118 -166.85189 34310 ft 539 kts 102°
2026-04-30 19:09 51.76605 -166.67210 34330 ft 542 kts 102°
2026-04-30 19:09 51.75583 -166.55192 34318 ft 540 kts 102°
2026-04-30 19:10 51.73495 -166.31183 34324 ft 540 kts 102°
2026-04-30 19:11 51.71889 -166.13098 34323 ft 542 kts 102°
2026-04-30 19:12 51.70802 -166.01058 34328 ft 543 kts 102°
2026-04-30 19:12 51.69710 -165.89078 34331 ft 543 kts 102°
2026-04-30 19:13 51.67468 -165.64909 34338 ft 546 kts 102°
2026-04-30 19:14 51.66324 -165.52801 34342 ft 547 kts 103°
2026-04-30 19:14 51.65169 -165.40698 34343 ft 546 kts 103°
2026-04-30 19:15 51.63997 -165.28577 34346 ft 551 kts 103°
2026-04-30 19:15 51.62221 -165.10420 34346 ft 549 kts 103°
2026-04-30 19:16 51.61014 -164.98267 34343 ft 549 kts 103°
2026-04-30 19:17 51.59186 -164.80097 34346 ft 548 kts 103°
2026-04-30 19:17 51.57332 -164.61964 34352 ft 549 kts 103°
2026-04-30 19:18 51.55444 -164.43792 34361 ft 550 kts 103°
2026-04-30 19:19 51.54165 -164.31644 34365 ft 554 kts 104°
2026-04-30 19:19 51.52234 -164.13514 34374 ft 551 kts 104°
2026-04-30 19:20 51.50924 -164.01381 34382 ft 551 kts 104°
2026-04-30 19:21 51.48929 -163.83150 34375 ft 556 kts 104°
2026-04-30 19:22 51.46217 -163.58761 34384 ft 555 kts 104°
2026-04-30 19:23 51.42043 -163.22137 34405 ft 557 kts 105°
2026-04-30 19:24 51.39920 -163.03925 34409 ft 557 kts 105°
2026-04-30 19:25 51.36283 -162.73289 34414 ft 561 kts 105°
2026-04-30 19:26 51.33312 -162.48792 34420 ft 564 kts 105°
2026-04-30 19:27 51.31041 -162.30353 34429 ft 564 kts 105°
2026-04-30 19:28 51.28739 -162.11929 34437 ft 563 kts 106°
2026-04-30 19:29 51.25627 -161.87392 34445 ft 565 kts 106°
2026-04-30 19:30 51.22453 -161.62824 34452 ft 564 kts 106°
2026-04-30 19:31 51.19217 -161.38204 34465 ft 567 kts 106°
2026-04-30 19:31 51.16755 -161.19760 34473 ft 567 kts 107°
2026-04-30 19:32 51.15093 -161.07447 34470 ft 573 kts 107°
2026-04-30 19:32 51.13423 -160.95151 34479 ft 571 kts 107°
2026-04-30 19:33 51.11728 -160.82802 34494 ft 571 kts 107°
2026-04-30 19:33 51.10022 -160.70465 34497 ft 571 kts 107°
2026-04-30 19:34 51.08293 -160.58084 34508 ft 575 kts 107°
2026-04-30 19:35 51.05679 -160.39522 34508 ft 574 kts 107°
2026-04-30 19:35 51.03919 -160.27156 34516 ft 573 kts 107°
2026-04-30 19:36 51.02147 -160.14817 34528 ft 573 kts 108°
2026-04-30 19:36 50.99711 -159.96304 34559 ft 577 kts 100°
2026-04-30 19:37 50.99118 -159.83539 34547 ft 579 kts 97°
2026-04-30 19:37 50.98322 -159.70830 34577 ft 582 kts 99°
2026-04-30 19:38 50.97609 -159.58182 34551 ft 573 kts 98°
2026-04-30 19:38 50.96844 -159.45554 34557 ft 574 kts 99°
2026-04-30 19:39 50.96198 -159.35047 34567 ft 575 kts 98°
2026-04-30 19:39 50.95430 -159.22387 34566 ft 580 kts 99°
2026-04-30 19:40 50.94620 -159.09667 34571 ft 578 kts 99°
2026-04-30 19:40 50.93814 -158.96972 34583 ft 579 kts 99°
2026-04-30 19:41 50.92982 -158.84272 34574 ft 578 kts 99°
2026-04-30 19:41 50.92143 -158.71558 34585 ft 581 kts 99°
2026-04-30 19:42 50.91291 -158.58926 34598 ft 580 kts 99°
2026-04-30 19:42 50.90422 -158.46215 34598 ft 580 kts 99°
2026-04-30 19:43 50.89538 -158.33519 34582 ft 581 kts 99°
2026-04-30 19:44 50.88185 -158.14440 34623 ft 581 kts 99°
2026-04-30 19:44 50.87264 -158.01717 34629 ft 581 kts 99°
2026-04-30 19:45 50.86331 -157.89010 34631 ft 581 kts 99°
2026-04-30 19:45 50.85383 -157.76298 34637 ft 582 kts 99°
2026-04-30 19:46 50.84426 -157.63640 34655 ft 575 kts 99°
2026-04-30 19:46 50.83461 -157.51097 34653 ft 578 kts 99°
2026-04-30 19:47 50.82481 -157.38494 34644 ft 578 kts 100°
2026-04-30 19:47 50.81482 -157.25872 34666 ft 578 kts 99°
2026-04-30 19:48 50.80473 -157.13264 34667 ft 579 kts 100°
2026-04-30 19:48 50.79446 -157.00633 34682 ft 579 kts 100°
2026-04-30 19:49 50.78408 -156.88026 34687 ft 578 kts 100°
2026-04-30 19:49 50.76824 -156.69107 34700 ft 578 kts 100°
2026-04-30 19:50 50.75752 -156.56518 34700 ft 578 kts 100°
2026-04-30 19:50 50.74667 -156.43939 34713 ft 578 kts 100°
2026-04-30 19:51 50.73570 -156.31385 34716 ft 576 kts 100°
2026-04-30 19:51 50.72461 -156.18848 34716 ft 576 kts 100°
2026-04-30 19:52 50.71339 -156.06332 34725 ft 576 kts 100°
2026-04-30 19:52 50.70210 -155.93888 34720 ft 576 kts 100°
2026-04-30 19:53 50.69064 -155.81402 34741 ft 575 kts 100°
2026-04-30 19:53 50.67907 -155.68944 34749 ft 567 kts 101°
2026-04-30 19:54 50.66749 -155.56652 34763 ft 569 kts 101°
2026-04-30 19:54 50.65579 -155.44340 34763 ft 568 kts 101°
2026-04-30 19:55 50.64395 -155.32044 34773 ft 568 kts 101°
2026-04-30 19:55 50.63198 -155.19743 34782 ft 568 kts 101°
2026-04-30 19:56 50.61988 -155.07454 34781 ft 568 kts 101°
2026-04-30 19:56 50.60765 -154.95167 34776 ft 568 kts 101°
2026-04-30 19:57 50.59527 -154.82869 34791 ft 569 kts 101°
2026-04-30 19:57 50.58284 -154.70647 34793 ft 568 kts 101°
2026-04-30 19:58 50.57021 -154.58370 34800 ft 567 kts 101°
2026-04-30 19:58 50.55747 -154.46117 34804 ft 568 kts 101°
2026-04-30 19:59 50.54459 -154.33856 34815 ft 568 kts 101°
2026-04-30 20:00 50.52503 -154.15480 34824 ft 569 kts 102°
2026-04-30 20:00 50.51189 -154.03304 34831 ft 569 kts 101°
2026-04-30 20:01 50.49181 -153.84913 34845 ft 569 kts 102°
2026-04-30 20:01 50.47832 -153.72718 34856 ft 563 kts 102°
2026-04-30 20:02 50.45791 -153.54497 34851 ft 565 kts 102°
2026-04-30 20:03 50.43718 -153.36259 34868 ft 566 kts 102°
2026-04-30 20:03 50.42329 -153.24179 34875 ft 566 kts 102°
2026-04-30 20:04 50.40911 -153.11978 34895 ft 565 kts 102°
2026-04-30 20:05 50.38785 -152.93880 34903 ft 565 kts 102°
2026-04-30 20:05 50.36619 -152.75713 34912 ft 565 kts 102°
2026-04-30 20:06 50.35161 -152.63621 34907 ft 565 kts 102°
2026-04-30 20:06 50.33691 -152.51538 34920 ft 565 kts 102°
2026-04-30 20:07 50.32208 -152.39464 34932 ft 565 kts 102°
2026-04-30 20:08 50.29959 -152.21354 34938 ft 565 kts 102°
2026-04-30 20:08 50.28445 -152.09299 34942 ft 564 kts 102°
2026-04-30 20:09 50.26919 -151.97259 34956 ft 564 kts 102°
2026-04-30 20:09 50.24622 -151.79316 34974 ft 560 kts 103°
2026-04-30 20:10 50.22306 -151.61473 34981 ft 559 kts 103°
2026-04-30 20:11 50.19963 -151.43642 34992 ft 559 kts 103°
2026-04-30 20:11 50.18384 -151.31753 34997 ft 559 kts 103°
2026-04-30 20:12 50.15999 -151.13978 34999 ft 558 kts 103°
2026-04-30 20:13 50.14405 -151.02219 35003 ft 558 kts 103°
2026-04-30 20:13 50.12788 -150.90390 35011 ft 558 kts 103°
2026-04-30 20:14 50.11157 -150.78549 35016 ft 559 kts 103°
2026-04-30 20:14 50.09512 -150.66703 35030 ft 559 kts 103°
2026-04-30 20:15 50.07856 -150.54875 35040 ft 559 kts 103°
2026-04-30 20:15 50.06189 -150.43059 35037 ft 558 kts 103°
2026-04-30 20:16 50.04516 -150.31301 35054 ft 556 kts 103°
2026-04-30 20:16 50.02830 -150.19536 35066 ft 557 kts 103°
2026-04-30 20:17 50.01134 -150.07791 35064 ft 556 kts 104°
2026-04-30 20:17 49.99703 -149.95993 35086 ft 556 kts 96°
2026-04-30 20:18 49.99148 -149.84079 35094 ft 556 kts 95°
2026-04-30 20:18 49.98403 -149.72115 35104 ft 556 kts 96°
2026-04-30 20:19 49.97731 -149.60116 35116 ft 557 kts 95°
2026-04-30 20:19 49.97009 -149.48135 35117 ft 557 kts 96°
2026-04-30 20:20 49.96288 -149.36176 35118 ft 555 kts 95°
2026-04-30 20:20 49.95556 -149.24246 35137 ft 555 kts 96°
2026-04-30 20:21 49.94807 -149.12312 35134 ft 555 kts 96°
2026-04-30 20:21 49.94055 -149.00439 35145 ft 556 kts 96°
2026-04-30 20:22 49.93282 -148.88520 35155 ft 555 kts 96°
2026-04-30 20:22 49.92506 -148.76666 35165 ft 549 kts 96°
2026-04-30 20:23 49.91716 -148.64852 35175 ft 550 kts 96°
2026-04-30 20:23 49.90916 -148.53019 35176 ft 551 kts 96°
2026-04-30 20:24 49.90105 -148.41235 35181 ft 547 kts 96°
2026-04-30 20:24 49.89283 -148.29461 35185 ft 549 kts 97°
2026-04-30 20:25 49.88027 -148.11796 35200 ft 549 kts 97°
2026-04-30 20:26 49.86749 -147.94221 35219 ft 548 kts 97°
2026-04-30 20:26 49.85443 -147.76616 35228 ft 547 kts 97°
2026-04-30 20:27 49.83822 -147.55281 35233 ft 544 kts 97°
2026-04-30 20:28 49.82015 -147.32082 35242 ft 543 kts 98°
2026-04-30 20:30 49.79698 -147.03194 35269 ft 541 kts 98°
2026-04-30 20:31 49.76824 -146.68580 35286 ft 540 kts 98°
2026-04-30 20:32 49.74372 -146.40021 35289 ft 534 kts 99°
2026-04-30 20:33 49.72874 -146.22966 35293 ft 534 kts 99°
2026-04-30 20:34 49.71355 -146.05982 35313 ft 534 kts 99°
2026-04-30 20:35 49.69803 -145.88906 35315 ft 534 kts 99°
2026-04-30 20:35 49.68228 -145.71874 35322 ft 533 kts 99°
2026-04-30 20:36 49.67166 -145.60539 35324 ft 534 kts 99°
2026-04-30 20:37 49.65562 -145.43654 35331 ft 525 kts 100°
2026-04-30 20:37 49.64484 -145.32458 35338 ft 527 kts 100°
2026-04-30 20:38 49.63403 -145.21337 35340 ft 527 kts 100°
2026-04-30 20:38 49.62302 -145.10141 35347 ft 528 kts 100°
2026-04-30 20:39 49.60638 -144.93421 35354 ft 526 kts 101°
2026-04-30 20:40 49.58952 -144.76721 35358 ft 525 kts 101°
2026-04-30 20:40 49.57815 -144.65609 35358 ft 525 kts 101°
2026-04-30 20:41 49.56099 -144.49040 35359 ft 524 kts 101°
2026-04-30 20:41 49.54939 -144.37961 35366 ft 522 kts 101°
2026-04-30 20:42 49.53771 -144.26927 35369 ft 523 kts 101°